User: anonymous   Login
Location: ?????
(32.7281°N, 34.9563°E)
Time: 12:28:07
(UTC+00:00)
Language:

Meteor 2-1 Rocket - Orbit

View from above orbital plane
View from above orbital plane
View from above satellite
View from above satellite

Ground track
Ground track

The orbit data is extracted from the following two-line orbital elements,

1  8027U 75064B   21138.06323380  .00000046  00000-0  19309-4 0  9995
2  8027  81.2945 117.4785 0056385 187.9031 172.1256 14.07362374353739
Epoch (UTC): 18 May 2021 01:31:03
Eccentricity: 0.0056385
inclination: 81.2945°
perigee height: 827 km
apogee height: 909 km
right ascension of ascending node: 117.4785°
argument of perigee: 187.9031°
revolutions per day: 14.07362374
mean anomaly at epoch: 172.1256°
orbit number at epoch: 35373

The dashed part of the orbit path shows where the satellite is in the earth's shadow,  

DLR